[[{"header":{"parameterUnit":"m.s-1","parameterCategory":1,"la1":30.2991,"la2":30.254,"lo1":-89.0895,"lo2":-89.0444,"dy":0.0017,"dx":0.0017,"nx":28,"ny":28,"refTime":"2024-07-07T21:00:00:Z","depth":0,"parameterNumber":2,"parameterNumberName":"U-component_of_WINDS"},"data":[0,0,0,0,0,0,0,0,0,0,0,0,0,0,0,0,0,0,0,0,0,0,0,0,0,0,0,0,0,0,0,0,0,0,0,0,0,0,0,0,0,0,0,0,0,0,0,0,0,0,0,0,0,0,0,0,0,0,0.0686,0.0688,0,0.0822,0.0824,0.0825,0.0909,0.0909,0.091,0.091,0.105,0.1053,0.1056,0,0,0,0,0,0,0,0,0,0,0,0,0,0.0499,0.0502,0.0686,0.0688,0.069,0.0822,0.0824,0.0826,0.0909,0.0909,0.091,0.091,0.1049,0.1053,0.1057,0,0,0,0,0,0,0,0,0,0,0,0,0,0.0602,0.0503,0.0686,0.0747,0.0754,0.0821,0.0824,0.0826,0.0909,0.0909,0.091,0.0911,0.1047,0.1052,0.1057,0.1075,0,0,0.1072,0.1074,0,0,0,0,0,0,0,0,0.0596,0.0609,0.0736,0.0743,0.0751,0.0849,0.0809,0.0909,0.0909,0.085,0.091,0.0911,0.0983,0.0993,0.1017,0.1081,0.1087,0.1073,0.1076,0.1078,0.1079,0,0,0,0,0,0,0,0.0589,0.0603,0.074,0.0738,0.0747,0.0768,0.0783,0.0828,0.0911,0.0855,0.0862,0.0876,0.0987,0.1012,0.1021,0.1089,0.1073,0.1077,0.108,0.1082,0.1174,0.1173,0,0,0,0,0,0,0.0572,0.0597,0.0736,0.0744,0.0673,0.077,0.0788,0.0817,0.0911,0.0926,0.0876,0.088,0.1003,0.1015,0.1026,0.1052,0.1078,0.1083,0.1085,0.1174,0.1174,0.1173,0,0,0,0,0,0,0.0567,0.0583,0.073,0.0672,0.0693,0.0773,0.0805,0.0819,0.0845,0.0926,0.0941,0.0886,0.1004,0.1019,0.1062,0.1058,0.1085,0.1089,0.1175,0.1174,0.1173,0.1104,0,0,0,0,0,0,0.0562,0.0581,0.0589,0.0672,0.0695,0.0763,0.0805,0.0822,0.0853,0.086,0.094,0.0954,0.1006,0.1054,0.1067,0.1065,0.1093,0.1176,0.1175,0.1174,0.1107,0.1101,0.1096,0,0,0,0,0,0.0555,0.0564,0.0589,0.0605,0.0706,0.0763,0.0776,0.0835,0.0852,0.086,0.0913,0.0952,0.1056,0.1057,0.1073,0.1073,0.1176,0.1175,0.1174,0.111,0.1102,0.1096,0,0,0,0,0,0,0.0479,0.0576,0.0604,0.0641,0.0693,0.0777,0.0789,0.0826,0.0874,0.0878,0.095,0.0967,0.1002,0.1042,0.1042,0.1094,0.1121,0.1122,0.1067,0.1061,0.1055,0.1044,0.1097,0,0,0,0,0,0.0466,0.0504,0.0587,0.0611,0.0636,0.0708,0.0735,0.0775,0.0832,0.0855,0.091,0.0964,0.1009,0.1037,0.1083,0.1113,0.1132,0.1121,0.1115,0.111,0.1111,0.1129,0.1125,0.1169,0.1169,0.1169,0,0,0.0441,0.0499,0.0518,0.0598,0.0643,0.068,0.0726,0.0764,0.0792,0.0861,0.0904,0.0946,0.1011,0.1047,0.1066,0.1081,0.1103,0.1109,0.1104,0.1108,0.1127,0.1123,0.1119,0.1168,0.1168,0.1169,0,0,0.0413,0.0461,0.0486,0.053,0.0598,0.0646,0.0651,0.073,0.076,0.0805,0.0857,0.0892,0.0968,0.1012,0.1044,0.1032,0.107,0.1045,0.1016,0.1033,0.1029,0.1026,0.1021,0.1019,0.1046,0.1046,0.1045,0,0.0373,0.0432,0.0494,0.0529,0.0562,0.0626,0.0651,0.0691,0.077,0.0792,0.0808,0.0904,0.0952,0.0999,0.0996,0.102,0.1029,0.1036,0.1025,0.1023,0.1021,0.1017,0.1015,0.1042,0.1042,0.1043,0.1043,0,0.0378,0.0418,0.043,0.0504,0.0539,0.0569,0.0636,0.0663,0.0701,0.0747,0.0791,0.0851,0.091,0.0924,0.0962,0.0976,0.0983,0.1011,0.1039,0.1012,0.1009,0.1009,0.1037,0.1038,0.1039,0.104,0,0,0.0306,0.0415,0.0418,0.0452,0.0531,0.0563,0.0596,0.0653,0.0675,0.0727,0.0756,0.0819,0.0845,0.0881,0.0924,0.0939,0.0925,0.0965,0.0968,0.0955,0.0943,0.0921,0.0918,0.095,0.095,0.095,0.0938,0,0.029,0.0352,0.0409,0.045,0.0487,0.0548,0.0576,0.0627,0.0671,0.0708,0.0757,0.08,0.0831,0.0853,0.0871,0.0922,0.0923,0.0924,0.0977,0.0978,0.0958,0.0917,0.0894,0.088,0.0937,0.0937,0.0937,0,0.0279,0.0328,0.0372,0.0447,0.0465,0.0489,0.0546,0.0581,0.0641,0.0671,0.0711,0.0757,0.0794,0.0818,0.087,0.0869,0.0894,0.0923,0.0924,0.093,0.0955,0.0922,0.0876,0.0874,0.0936,0.0936,0.0936,0,0.022,0.0298,0.0334,0.0362,0.045,0.0466,0.0503,0.0564,0.0594,0.0644,0.0664,0.0718,0.0747,0.0787,0.0845,0.0858,0.089,0.092,0.0916,0.0915,0.092,0.0919,0.0877,0.0937,0.0937,0.0937,0.0937,0,0.0195,0.022,0.0309,0.0331,0.036,0.0426,0.0453,0.0496,0.0549,0.058,0.0637,0.0665,0.0741,0.0778,0.0824,0.0859,0.0872,0.0898,0.0909,0.0892,0.0889,0.0909,0.0911,0.0937,0.0937,0.0937,0.0937,0,0.0135,0.0196,0.0239,0.0319,0.034,0.0358,0.0426,0.045,0.0497,0.0536,0.0549,0.0622,0.0669,0.0731,0.0798,0.0828,0.0858,0.0877,0.0837,0.0844,0.0837,0.0836,0.0806,0.0805,0.0866,0.0865,0.0865,0,0.0114,0.0134,0.0217,0.0242,0.0277,0.0317,0.0348,0.0414,0.0444,0.0513,0.0528,0.0579,0.0623,0.0695,0.0754,0.0805,0.0825,0.0811,0.0833,0.0815,0.0824,0.0822,0.0824,0.0805,0.0804,0.0804,0.0803,0,0.0071,0.01,0.0143,0.0196,0.0232,0.0277,0.0325,0.0342,0.0418,0.0449,0.0497,0.0531,0.0599,0.0649,0.0707,0.0746,0.0787,0.0796,0.0797,0.0779,0.0755,0.0767,0.0821,0.0796,0.0796,0.0797,0.0797,0.0798,0.0029,0.0049,0.011,0.0156,0.0199,0.0242,0.0268,0.0318,0.0359,0.0419,0.0456,0.0502,0.0561,0.0644,0.0681,0.0718,0.0734,0.0737,0.0737,0.0737,0.073,0.075,0.0729,0.0729,0.073,0.073,0.073,0,-0.0013,0.003,0.0071,0.0136,0.0172,0.0207,0.0262,0.0289,0.033,0.0381,0.0423,0.0478,0.0527,0.059,0.0642,0.066,0.068,0.0672,0.0671,0.0679,0.0714,0.0706,0.0655,0.0655,0.0655,0.0655,0.0655,0.0655,-0.003,0.0006,0.0042,0.01,0.0142,0.0188,0.0216,0.0256,0.0297,0.0356,0.0397,0.0437,0.0493,0.0551,0.0596,0.0614,0.063,0.0616,0.0638,0.067,0.0676,0.0683,0.0676,0.0619,0.0619,0.06,0.06,0.06]},{"header":{"parameterUnit":"m.s-1","parameterCategory":1,"la1":30.2991,"la2":30.254,"lo1":-89.0895,"lo2":-89.0444,"dy":0.0017,"dx":0.0017,"nx":28,"ny":28,"refTime":"2024-07-07T21:00:00:Z","depth":0,"parameterNumber":3,"parameterNumberName":"V-component_of_WINDS"},"data":[0,0,0,0,0,0,0,0,0,0,0,0,0,0,0,0,0,0,0,0,0,0,0,0,0,0,0,0,0,0,0,0,0,0,0,0,0,0,0,0,0,0,0,0,0,0,0,0,0,0,0,0,0,0,0,0,0,0,4.9523,4.9523,0,4.9517,4.9517,4.9517,4.9466,4.9465,4.9464,4.9462,4.9456,4.9457,4.9458,0,0,0,0,0,0,0,0,0,0,0,0,0,4.949,4.9491,4.9523,4.9523,4.9523,4.9517,4.9517,4.9517,4.9466,4.9465,4.9463,4.9462,4.9456,4.9457,4.9458,0,0,0,0,0,0,0,0,0,0,0,0,0,4.9497,4.9491,4.9523,4.9497,4.9495,4.9517,4.9517,4.9517,4.9467,4.9465,4.9463,4.9461,4.9455,4.9457,4.9458,4.9506,0,0,4.9463,4.9464,0,0,0,0,0,0,0,0,4.9496,4.9498,4.9501,4.9499,4.9496,4.9491,4.9503,4.9513,4.9467,4.9477,4.9462,4.946,4.9469,4.9469,4.9472,4.9505,4.9505,4.9463,4.9464,4.9465,4.9465,0,0,0,0,0,0,0,4.9496,4.9498,4.9521,4.9501,4.9498,4.9486,4.9484,4.9505,4.9484,4.9476,4.9473,4.9473,4.9467,4.9471,4.9472,4.9505,4.9463,4.9464,4.9465,4.9466,4.9577,4.9579,0,0,0,0,0,0,4.9499,4.9498,4.9521,4.9521,4.9492,4.9488,4.9486,4.9494,4.9483,4.948,4.9474,4.947,4.9469,4.947,4.9471,4.9526,4.9465,4.9466,4.9467,4.9575,4.9577,4.9579,0,0,0,0,0,0,4.9499,4.9502,4.9521,4.9508,4.951,4.949,4.95,4.9495,4.9499,4.9482,4.9478,4.9482,4.9468,4.9469,4.9498,4.9525,4.9467,4.9468,4.9572,4.9576,4.9578,4.9636,0,0,0,0,0,0,4.9498,4.9502,4.9519,4.9509,4.9511,4.9548,4.9501,4.9496,4.9502,4.9496,4.9488,4.9485,4.9467,4.9496,4.9499,4.9526,4.9469,4.957,4.9574,4.9577,4.9631,4.9641,4.9648,0,0,0,0,0,4.9497,4.9536,4.9521,4.9524,4.9532,4.9549,4.955,4.9528,4.9504,4.9522,4.9511,4.9485,4.9522,4.9499,4.9502,4.953,4.9568,4.9573,4.9577,4.9628,4.9639,4.9648,0,0,0,0,0,0,4.9549,4.9534,4.9517,4.9553,4.9553,4.9541,4.9562,4.9541,4.9547,4.9542,4.9515,4.9513,4.9546,4.9541,4.9516,4.9576,4.954,4.9546,4.9578,4.9588,4.9596,4.9597,4.947,0,0,0,0,0,4.9565,4.958,4.9566,4.96,4.96,4.9582,4.9588,4.9572,4.957,4.957,4.9561,4.956,4.9572,4.958,4.9589,4.9631,4.9628,4.9652,4.966,4.9667,4.9672,4.9694,4.9705,4.9595,4.9594,4.9594,0,0,4.9598,4.9591,4.9602,4.961,4.9608,4.9624,4.9582,4.96,4.9612,4.9572,4.9598,4.9592,4.959,4.9625,4.964,4.9622,4.9702,4.9673,4.9679,4.968,4.97,4.971,4.972,4.9598,4.9597,4.9597,0,0,4.9666,4.9662,4.969,4.9689,4.9687,4.9674,4.9681,4.9672,4.9667,4.9693,4.9663,4.9677,4.9697,4.9697,4.9699,4.9769,4.9745,4.9773,4.9817,4.9838,4.9847,4.9855,4.9879,4.9888,4.9778,4.9778,4.9778,0,4.9706,4.973,4.9707,4.9728,4.9732,4.9698,4.9726,4.9726,4.9727,4.9731,4.971,4.9736,4.9731,4.9766,4.9783,4.9787,4.9794,4.9773,4.9848,4.9855,4.9862,4.9885,4.9894,4.9781,4.9781,4.9781,4.978,0,4.978,4.9797,4.982,4.9822,4.9829,4.9854,4.9835,4.9845,4.9828,4.9818,4.9845,4.9839,4.9847,4.9855,4.9838,4.9887,4.9876,4.9853,4.9816,4.9876,4.9897,4.9906,4.9786,4.9785,4.9784,4.9783,0,0,4.9879,4.987,4.9878,4.9879,4.9875,4.9887,4.9911,4.9919,4.9928,4.993,4.9949,4.9968,4.9946,4.9949,4.9932,4.9952,5.0007,4.9925,4.9925,4.9941,5.0061,5.0079,5.009,4.9992,4.9994,4.9995,5.0061,0,4.9944,4.9984,4.9964,5.0006,5.0022,4.999,5.001,5.001,5.0001,5.0013,5.0003,5.0017,4.9987,4.9989,5.0007,4.9997,5.0031,4.9992,5.0009,5.001,5.001,5.0101,5.0119,5.0182,5.007,5.0071,5.0072,0,5.0025,5.0031,5.0075,5.0068,5.0074,5.0093,5.0099,5.0111,5.011,5.0103,5.0107,5.0086,5.0109,5.0074,5.0105,5.0078,5.0085,5.0081,5.0083,5.0083,5.0044,5.0103,5.0201,5.0211,5.0085,5.0084,5.0083,0,5.0093,5.0112,5.0141,5.0143,5.0136,5.015,5.0148,5.0145,5.0151,5.0157,5.0161,5.017,5.0174,5.0181,5.0163,5.0139,5.0197,5.016,5.0191,5.0192,5.0204,5.0203,5.0304,5.0209,5.0209,5.0209,5.0208,0,5.0167,5.0195,5.0171,5.0189,5.0219,5.0197,5.0228,5.0222,5.022,5.0236,5.0209,5.0225,5.0201,5.0214,5.02,5.0228,5.023,5.0225,5.0221,5.0227,5.0228,5.023,5.0225,5.0211,5.021,5.021,5.021,0,5.0247,5.0233,5.0262,5.0254,5.0252,5.0275,5.0268,5.0284,5.0274,5.0294,5.0298,5.0282,5.0297,5.028,5.0293,5.0284,5.0321,5.0311,5.0322,5.0318,5.035,5.0347,5.0456,5.0469,5.0366,5.0367,5.0368,0,5.0295,5.0316,5.031,5.0319,5.0319,5.0334,5.0341,5.032,5.0328,5.033,5.0346,5.0358,5.0366,5.0391,5.0381,5.039,5.038,5.0417,5.0381,5.0387,5.038,5.0379,5.0381,5.0424,5.0426,5.0427,5.0428,0,5.0382,5.0374,5.0385,5.0394,5.0403,5.0409,5.0413,5.0422,5.0401,5.0412,5.0426,5.0433,5.0447,5.0459,5.0466,5.0464,5.0442,5.0439,5.0447,5.0453,5.0458,5.0456,5.0341,5.0437,5.0436,5.0435,5.0434,5.0434,5.0447,5.0465,5.0464,5.0477,5.0478,5.0483,5.0498,5.049,5.0502,5.0512,5.0499,5.0517,5.0517,5.0524,5.0524,5.0538,5.0522,5.0533,5.0536,5.0539,5.0544,5.0457,5.054,5.0539,5.0539,5.0539,5.0539,0,5.0532,5.0531,5.0543,5.055,5.0561,5.0541,5.0544,5.0555,5.0571,5.0573,5.0582,5.0599,5.0611,5.0603,5.0613,5.0626,5.0617,5.0629,5.0628,5.0628,5.0558,5.055,5.0637,5.0637,5.0637,5.0637,5.0637,5.0637,5.0578,5.0606,5.0598,5.0627,5.0625,5.0643,5.0647,5.0651,5.0652,5.0673,5.0683,5.0678,5.0675,5.0685,5.0696,5.0693,5.0698,5.0714,5.0708,5.0642,5.0633,5.0623,5.0616,5.0716,5.0716,5.0777,5.0778,5.0778]}]]